Theta_e
331 336 345 344 344 345 346 344 343 344 343 340 341 341 342 342 345 347 346 346 343 339 340 339 338 339 339 339 339 338 338 338 339 339 338 339 339 340 339 340 339 333 341
335 339 344 344 343 345 347 343 344 344 342 341 340 340 341 343 344 346 345 345 341 339 338 337 337 338 338 337 338 339 339 339 338 338 338 339 338 337 337 340 338 333 337
336 339 343 346 345 344 347 345 344 343 340 339 339 339 340 341 344 345 343 344 339 338 337 336 336 337 337 338 340 341 340 339 337 336 335 328 330 337 337 339 341 341 339
336 339 343 345 346 345 347 345 344 342 339 337 337 337 338 340 342 344 341 341 337 336 336 336 337 337 337 338 340 340 337 336 336 333 327 332 335 340 340 339 338 338 338
336 339 342 345 347 347 347 345 344 343 340 337 336 336 338 339 340 340 339 337 336 335 335 336 336 336 336 336 339 338 337 335 335 333 331 331 331 335 337 335 333 333 334
336 340 342 346 347 347 347 345 344 342 340 338 336 335 337 337 338 338 336 334 333 333 334 334 335 335 334 337 338 336 334 331 329 327 329 330 328 334 335 333 332 331 330
337 339 344 345 347 347 347 346 345 341 340 339 335 335 335 335 336 335 333 331 331 332 332 332 333 332 334 334 336 331 329 328 319 318 319 321 326 333 334 332 330 328 327
339 342 344 340 342 344 345 345 344 342 341 340 335 334 334 333 334 332 330 329 330 331 331 331 332 333 334 334 333 332 331 328 323 320 320 324 333 333 331 328 326 325 324
340 341 342 342 341 338 340 341 342 342 341 340 339 336 335 334 334 331 330 328 329 330 330 330 332 332 333 332 331 330 328 327 322 323 328 329 332 331 328 326 325 323 323
335 337 338 338 340 340 339 335 336 338 338 338 336 334 331 332 331 330 328 328 328 329 329 330 330 330 330 329 327 327 325 324 320 326 326 328 331 328 326 324 323 322 321
335 335 335 335 337 338 338 334 332 333 333 332 330 327 325 324 323 323 325 327 328 328 328 329 327 326 325 326 325 322 319 315 320 323 324 328 328 325 325 323 321 321 320
327 333 336 335 335 336 339 334 335 335 333 331 329 326 325 323 322 323 321 325 327 327 327 326 325 323 317 313 316 318 311 310 313 315 322 327 326 324 322 321 320 320 318
327 330 334 336 335 334 336 336 336 335 333 330 327 326 325 322 320 319 317 316 317 318 320 320 315 313 312 311 311 313 312 311 311 312 319 325 324 322 322 319 319 318 317
327 328 332 336 335 335 336 337 336 335 334 331 328 327 325 322 319 316 315 313 312 311 309 310 309 309 308 308 309 309 309 309 308 308 313 320 321 321 320 319 318 317 316
324 328 330 333 335 335 334 335 336 335 334 333 331 330 328 324 319 316 315 315 313 310 311 308 307 307 304 304 304 304 304 306 305 304 306 315 318 319 319 318 317 316 315
324 326 328 330 333 335 335 335 334 335 335 334 332 331 330 327 322 318 317 316 314 316 314 310 307 304 301 301 299 300 301 302 301 301 299 302 316 317 317 318 316 316 315
323 326 327 329 330 330 333 333 334 335 335 334 333 331 331 329 324 321 320 319 318 314 312 307 304 301 299 297 294 295 297 299 299 297 297 297 298 310 314 314 314 314 313
320 322 327 330 329 330 330 331 333 333 334 334 333 333 331 329 326 323 321 319 317 311 308 305 302 298 296 295 291 290 290 292 293 294 294 295 295 296 305 310 311 311 312
319 323 324 328 328 328 327 328 328 329 331 333 334 333 331 330 327 324 321 319 314 309 306 303 301 297 294 292 291 288 288 288 288 290 290 293 294 293 294 303 305 308 308
317 322 325 326 328 328 326 324 323 323 326 330 330 332 331 330 328 325 321 317 312 307 304 302 300 297 294 292 291 288 286 286 286 286 286 289 290 290 289 291 291 296 305
315 318 323 323 324 326 324 322 321 324 323 321 325 329 331 331 329 326 321 317 312 308 304 302 300 295 293 291 289 288 287 285 285 284 284 284 285 286 286 287 287 288 291
313 317 322 324 323 325 326 326 325 320 315 320 316 320 330 330 329 327 322 316 313 310 305 302 300 295 293 291 289 287 283 283 284 285 284 284 283 284 285 285 285 287 286
306 312 318 322 322 323 323 316 311 311 309 311 311 313 318 324 326 326 321 317 313 312 306 303 300 297 292 291 291 291 283 284 281 283 283 283 282 282 282 283 284 286 286
305 310 315 318 319 320 318 316 317 317 315 317 318 317 310 315 320 322 319 316 314 313 309 304 301 299 296 291 291 293 291 287 283 280 283 282 282 282 281 281 282 284 284
302 303 306 308 312 315 315 315 315 314 314 303 304 306 307 306 312 313 315 314 313 313 311 306 302 300 297 295 294 293 290 288 286 282 279 280 280 281 281 281 281 281 283
299 300 302 305 305 307 312 310 311 311 303 302 302 304 304 303 306 309 309 312 313 312 310 306 303 300 297 297 296 296 294 289 287 284 280 280 280 279 280 280 281 281 281
Wind_Speed
6 8 9 10 7 7 13 15 10 10 12 14 14 15 15 14 15 17 19 21 21 19 20 20 20 20 21 20 22 24 24 24 22 22 23 23 24 24 24 21 21 18 24
12 10 10 10 7 9 12 13 10 10 12 13 13 14 15 15 15 18 20 21 21 19 19 19 19 20 20 19 16 16 21 22 20 18 20 22 23 25 25 22 21 21 25
14 11 9 9 12 9 12 12 10 12 13 13 14 14 15 15 15 19 20 19 19 19 18 18 18 19 18 16 16 19 20 19 17 15 15 11 13 23 23 21 22 25 25
13 11 8 10 14 13 12 12 11 12 13 14 14 14 15 15 15 18 18 18 18 18 18 18 18 18 17 17 18 22 21 20 16 11 9 11 15 26 27 27 27 26 26
12 11 10 12 14 15 14 13 12 12 13 14 14 14 15 15 15 16 17 18 18 17 17 18 17 16 17 16 19 22 23 21 17 12 9 11 11 21 25 25 24 25 24
13 12 12 14 15 15 14 14 13 13 14 14 14 14 16 15 15 16 17 16 17 17 17 17 15 16 16 18 21 22 21 18 13 10 11 15 13 23 23 25 26 25 25
11 12 12 14 15 14 14 14 13 13 13 14 14 14 15 15 15 16 16 16 16 16 17 16 16 15 16 17 20 21 19 14 8 6 6 8 14 23 25 25 24 24 23
12 12 12 13 13 13 13 13 13 13 13 14 14 15 16 15 15 16 16 16 16 17 16 16 16 17 20 22 21 21 17 14 9 7 6 8 20 24 25 23 23 23 23
13 11 9 10 11 12 12 11 12 15 14 14 13 14 14 14 14 15 14 15 16 16 16 17 17 18 21 23 23 20 16 12 7 4 8 8 23 25 21 22 24 23 22
11 11 9 7 8 8 8 11 11 13 14 13 13 13 13 13 12 12 11 14 16 16 16 17 16 16 19 20 20 16 14 13 7 8 6 9 22 21 21 22 22 22 22
11 11 10 8 6 7 7 7 10 13 13 14 12 13 11 6 7 7 9 14 16 17 17 16 16 15 16 16 18 15 12 4 5 5 6 19 21 19 21 21 20 21 21
11 13 12 12 10 8 7 6 6 7 7 7 8 9 6 7 6 7 8 11 14 15 17 18 16 12 9 5 5 10 4 4 7 5 6 20 19 19 19 19 19 20 20
8 9 14 13 13 13 9 7 5 4 5 5 9 6 6 6 7 5 4 4 4 6 5 6 5 4 6 5 5 5 4 7 5 5 6 14 18 17 19 17 18 19 19
9 9 10 14 13 13 8 8 9 7 6 6 8 6 7 6 6 6 5 5 4 3 5 4 3 5 6 6 7 8 8 6 5 4 7 11 14 16 16 17 17 18 18
10 10 11 11 12 10 11 8 9 9 8 8 9 9 9 8 8 7 5 6 7 5 5 4 5 5 6 6 6 6 8 8 8 4 4 13 12 15 15 15 16 17 16
11 13 11 12 11 10 11 12 10 9 10 9 8 9 11 9 8 8 7 7 7 6 6 6 6 6 5 7 7 6 6 7 7 7 4 6 14 12 14 15 13 15 15
11 12 13 13 11 10 12 10 9 9 9 9 9 11 13 11 11 11 8 7 6 6 8 7 6 6 6 6 7 6 6 6 5 6 5 5 6 11 11 13 13 13 14
9 14 14 13 13 11 9 8 8 8 8 9 9 10 13 13 13 10 9 8 7 7 8 8 7 7 5 5 6 4 5 5 6 5 5 5 4 4 7 10 11 12 12
13 12 14 15 15 12 9 7 7 8 8 9 9 9 14 14 14 12 9 9 10 8 8 9 6 8 7 5 6 4 4 5 5 4 6 5 6 5 4 9 11 8 10
13 11 13 12 14 13 8 6 4 5 7 8 9 10 14 12 14 11 9 10 9 8 8 8 10 7 8 8 7 5 4 4 4 4 5 4 5 5 4 4 4 5 8
12 11 14 14 13 12 8 8 7 11 7 5 6 12 15 13 15 14 10 11 11 11 12 12 10 13 8 8 7 3 3 2 4 4 4 4 5 5 5 3 3 3 3
16 16 14 15 14 14 11 10 8 5 2 3 3 6 11 14 16 14 13 13 13 10 11 12 14 10 3 11 5 3 3 1 2 4 4 5 6 4 5 5 5 4 3
13 15 16 16 15 14 12 4 3 3 2 3 4 4 7 11 13 14 13 12 13 13 12 16 15 17 11 11 11 7 4 6 4 3 5 5 6 4 4 5 6 5 5
16 14 15 13 14 14 13 11 14 12 12 10 9 5 4 6 9 10 12 13 15 12 14 15 15 14 11 13 5 6 3 4 5 3 3 5 5 7 6 4 5 5 6
10 11 9 9 11 11 15 14 12 13 8 3 3 6 6 5 5 6 10 13 14 12 14 16 16 15 11 11 13 6 4 4 2 5 4 5 1 4 6 6 5 5 6
4 6 7 9 8 10 14 12 14 14 7 6 5 7 6 4 5 6 8 10 13 13 14 14 16 18 14 12 11 7 9 7 6 5 3 4 9 4 4 5 6 6 5
Wind_Direction
165 164 159 130 111 98 93 91 93 92 87 90 88 89 88 86 71 81 91 87 84 79 77 79 81 86 88 86 86 87 85 80 75 76 80 79 77 75 76 73 68 65 64
143 160 161 137 120 112 108 109 105 100 98 93 95 93 93 89 81 91 90 87 79 82 80 83 86 90 88 83 85 96 91 87 82 76 73 78 79 77 75 74 74 75 75
144 152 154 146 137 137 117 118 113 106 105 102 97 95 94 92 85 94 91 88 87 86 86 86 90 93 85 74 77 84 87 84 83 78 84 79 79 82 83 77 76 72 78
142 145 149 140 135 142 130 127 123 114 111 107 103 101 100 98 88 92 91 90 91 90 92 92 92 92 80 67 82 86 81 73 68 67 76 79 82 78 72 70 69 66 63
140 147 147 141 140 144 138 136 129 122 113 107 105 104 102 99 97 93 92 91 95 95 96 95 94 86 70 61 90 88 82 75 67 66 69 81 77 78 76 72 70 67 65
149 148 148 146 146 146 143 138 134 125 116 109 107 107 104 104 103 98 96 99 98 100 99 97 96 81 66 73 91 93 88 77 67 74 79 82 78 82 84 81 77 74 70
140 142 147 145 148 149 145 140 137 124 120 117 115 113 110 111 109 103 104 104 104 105 101 99 93 79 67 84 98 92 86 79 79 70 64 78 90 92 86 79 78 78 78
132 140 147 144 148 149 149 145 141 133 127 124 124 122 119 116 113 111 112 111 110 104 105 102 94 79 79 88 88 81 72 68 58 55 53 92 98 88 83 87 82 77 77
134 137 142 146 153 153 153 150 144 133 130 129 129 122 116 114 112 113 113 115 113 111 107 105 94 87 87 85 82 76 65 57 59 45 75 94 92 90 93 84 80 81 80
142 138 142 141 153 158 156 158 148 138 135 127 123 114 107 103 105 111 114 116 115 111 109 103 93 91 90 84 76 70 60 47 49 75 78 89 94 95 89 84 85 82 80
148 144 147 148 156 154 156 164 150 146 138 134 130 126 122 119 112 109 121 123 125 122 117 110 102 89 71 75 75 67 55 32 48 63 89 90 93 96 90 88 88 85 82
158 158 162 161 166 161 166 159 155 149 147 144 146 146 137 124 126 118 119 125 127 128 128 121 105 83 69 74 68 64 55 43 51 35 84 96 103 93 95 93 92 88 84
177 163 164 172 172 171 171 167 163 155 154 153 160 157 140 130 129 119 114 110 121 121 133 111 80 90 93 98 85 80 64 55 41 33 26 106 104 103 101 99 93 90 87
179 177 176 173 174 177 166 171 169 169 169 167 176 161 148 145 144 141 147 144 140 141 119 113 103 98 82 82 98 92 77 62 49 33 23 100 103 111 108 104 98 94 91
187 190 182 180 180 178 168 173 172 175 178 178 180 174 165 159 158 154 168 163 160 153 135 126 113 101 84 68 61 81 82 78 61 45 34 38 114 110 108 106 103 99 96
192 192 182 186 184 175 180 181 177 175 179 179 184 183 175 164 161 167 167 183 173 162 150 136 130 120 111 107 94 89 88 87 74 55 38 33 39 114 116 108 105 105 101
203 191 189 184 185 175 179 177 175 178 178 182 185 183 181 171 172 170 173 179 179 147 139 127 112 106 109 106 97 91 97 101 98 79 59 50 25 36 97 116 114 109 106
185 190 193 190 184 179 180 171 173 177 180 184 186 188 182 177 173 172 173 177 162 147 144 144 144 130 121 125 120 102 100 94 100 96 78 65 50 37 49 96 108 113 112
195 187 188 188 188 181 176 172 175 181 183 189 184 186 189 182 176 174 177 172 163 153 152 151 149 146 138 128 123 110 102 99 98 97 99 95 80 63 46 53 45 81 108
194 187 186 186 190 186 170 164 174 182 197 190 186 185 182 185 178 175 175 166 164 159 155 156 155 147 144 142 125 105 101 110 120 117 120 120 118 100 88 68 41 19 93
198 180 187 180 188 179 183 177 190 206 201 197 190 183 182 184 184 182 179 170 169 171 175 170 152 147 147 135 107 72 58 99 136 148 147 144 146 152 150 134 91 59 37
198 196 190 192 184 190 191 198 203 189 195 198 192 186 179 185 182 188 180 177 179 176 169 170 164 152 139 173 141 116 157 301 264 192 172 167 172 164 160 161 141 131 108
200 196 196 193 186 190 186 141 92 91 77 179 204 199 194 183 182 183 180 178 181 179 182 177 176 179 163 194 179 142 147 211 139 199 198 188 176 173 169 163 156 153 153
217 205 201 192 182 184 172 178 196 206 213 221 220 209 184 195 178 186 182 183 182 187 188 189 183 185 169 184 184 230 172 166 161 176 218 196 185 184 180 184 169 168 163
203 199 190 176 177 175 182 190 194 207 213 153 152 174 185 188 205 179 190 188 188 195 193 189 188 190 196 176 195 179 173 174 132 148 171 182 238 206 183 178 177 178 179
206 182 179 180 189 180 186 190 194 203 176 166 175 191 196 185 193 202 194 203 198 197 193 193 191 193 193 194 204 189 206 176 182 155 134 166 182 195 186 182 182 186 185